VA3PPY Weather Reports


time (UTC)temp
C
wind
direction
speed
KPH
gust
KPH
rain 1hr
cm
rain 24hr
cm
rain mn
cm
humidity
%
barometer
mb
20260906013001 19 329 1.6 8.0 0.00 0.00 0.00 87 1014.5
20260906011501 19 359 0.0 11.3 0.00 0.00 0.00 86 1014.5
20260906010003 19 351 3.2 12.9 0.00 0.00 0.00 86 1014.4
20260906004501 19 354 3.2 14.5 0.00 0.00 0.00 85 1014.3
20260906003003 19 343 3.2 11.3 0.00 0.00 0.00 84 1014.5
20260906001501 19 315 1.6 12.9 0.00 0.00 0.00 83 1014.6
20260906000001 19 316 3.2 11.3 0.00 0.00 0.00 81 1014.4
20260905234500 19 337 3.2 17.7 0.00 0.00 0.00 79 1014.5
20260905233002 20 326 3.2 14.5 0.00 0.00 0.00 77 1014.5
20260905231501 20 5 4.8 16.1 0.00 0.00 0.00 75 1014.6
20260905230004 20 262 4.8 12.9 0.00 0.00 0.00 76 1014.7
20260905224503 20 326 4.8 16.1 0.00 0.00 0.00 74 1014.5
20260905223003 20 335 3.2 17.7 0.00 0.00 0.00 73 1014.4
20260905221501 20 335 4.8 16.1 0.00 0.00 0.00 70 1014.5
20260905220004 21 316 4.8 17.7 0.00 0.00 0.00 68 1014.4
20260905214502 21 360 3.2 14.5 0.00 0.00 0.00 70 1014.4
20260905213004 21 11 3.2 11.3 0.00 0.00 0.00 71 1014.3
20260905211503 21 1 4.8 17.7 0.00 0.00 0.00 72 1014.4
20260905210004 21 24 6.4 16.1 0.00 0.00 0.00 73 1014.3
20260905204502 22 333 3.2 17.7 0.00 0.00 0.00 73 1014.2
20260905203003 22 355 6.4 16.1 0.00 0.00 0.00 73 1014.1
20260905201503 22 311 3.2 12.9 0.00 0.00 0.00 75 1014.2
20260905200004 22 326 4.8 12.9 0.00 0.00 0.00 76 1014.3
20260905194503 22 311 6.4 17.7 0.00 0.00 0.00 77 1014.2
20260905193002 23 359 4.8 12.9 0.00 0.00 0.00 78 1014.3
20260905191502 23 272 3.2 16.1 0.00 0.00 0.00 78 1014.2
20260905190004 23 301 6.4 0.0 5.99 0.00 0.00 78 1014.4
20260905184507 23 282 3.2 12.9 0.00 0.00 0.00 76 1014.5
20260905183003 23 286 0.0 9.7 0.00 0.00 0.00 76 1014.6
20260905181502 23 237 1.6 8.0 0.00 0.00 0.00 78 1014.7
20260905180007 23 314 0.0 9.7 0.00 0.00 0.00 78 1014.6
20260905174503 23 323 4.8 12.9 0.00 0.00 0.00 75 1014.4
20260905173004 23 316 1.6 14.5 0.00 0.00 0.00 77 1014.4
20260905171503 23 328 3.2 14.5 0.00 0.00 0.00 76 1014.5
20260905170007 23 307 4.8 12.9 0.00 0.00 0.00 75 1014.5
20260905164503 23 335 3.2 11.3 0.00 0.00 0.00 75 1014.4
20260905163003 22 307 1.6 8.0 0.00 0.00 0.00 75 1014.5
20260905161503 22 298 1.6 11.3 0.00 0.00 0.00 77 1014.5
20260905160011 22 274 1.6 11.3 0.00 0.00 0.00 78 1014.5
20260905154503 21 317 3.2 11.3 0.00 0.00 0.00 78 1014.5
20260905153003 21 335 3.2 9.7 0.00 0.00 0.00 79 1014.6
20260905151506 21 319 4.8 12.9 0.00 0.00 0.00 78 1014.4
20260905150004 21 307 1.6 8.0 0.00 0.00 0.00 79 1014.4
20260905144511 21 44 0.0 4.8 0.00 0.00 0.00 79 1014.3
20260905143004 21 44 0.0 4.8 0.00 0.00 0.00 78 1014.3
20260905141504 21 44 0.0 6.4 0.00 0.00 0.00 81 1014.2
20260905140005 20 44 0.0 6.4 0.00 0.00 0.00 82 1014.2
20260905134504 20 43 0.0 0.0 0.00 0.03 0.00 83 1014.3
20260905133004 19 43 0.0 0.0 0.00 0.03 0.00 84 1014.4
20260905131504 18 43 0.0 0.0 0.00 0.03 0.00 87 1014.3
20260905130004 18 43 0.0 0.0 0.00 0.03 0.00 89 1014.4
20260905124507 17 43 0.0 0.0 0.00 0.03 0.00 92 1014.4
20260905123004 17 43 0.0 0.0 0.00 0.03 0.00 94 1014.4
20260905121504 16 43 0.0 0.0 0.00 0.03 0.00 95 1014.3
20260905120004 16 43 0.0 0.0 0.00 0.03 0.00 95 1014.2
20260905114503 16 43 0.0 0.0 0.00 0.03 0.00 95 1014.3
20260905113004 15 43 0.0 0.0 0.00 0.03 0.00 95 1014.1
20260905111506 15 43 0.0 0.0 0.00 0.03 0.00 94 1014.0
20260905110004 16 43 0.0 0.0 0.00 0.03 0.00 94 1014.0
20260905104504 16 43 0.0 0.0 0.00 0.03 0.00 94 1013.8
20260905103004 16 43 0.0 0.0 0.00 0.03 0.00 94 1013.7
20260905101504 16 43 0.0 0.0 0.00 0.03 0.00 94 1013.5
20260905100005 16 43 0.0 0.0 0.00 0.03 0.00 93 1013.4
20260905094504 17 43 0.0 0.0 0.00 0.03 0.00 93 1013.6
20260905093004 17 43 0.0 0.0 0.00 0.03 0.00 93 1013.4
20260905091504 17 43 0.0 0.0 0.00 0.03 0.00 93 1013.3
20260905090004 17 43 0.0 0.0 0.00 0.03 0.00 93 1013.2
20260905084504 17 43 0.0 0.0 0.00 0.03 0.00 93 1013.5
20260905083004 17 43 0.0 0.0 0.00 0.03 0.00 93 1013.5
20260905081505 17 43 0.0 0.0 0.00 0.03 0.00 93 1013.2
20260905080005 17 43 0.0 0.0 0.00 0.03 0.00 93 1013.1
20260905074505 17 43 0.0 0.0 0.00 0.03 0.00 93 1013.0
20260905073006 17 43 0.0 0.0 0.00 0.03 0.00 94 1012.9
20260905071505 17 43 0.0 0.0 0.00 0.03 0.00 94 1012.8
20260905070012 18 43 0.0 0.0 0.00 0.03 0.00 94 1012.9
20260905064505 18 43 0.0 0.0 0.00 0.03 0.00 94 1013.0
20260905063005 18 43 0.0 0.0 0.00 0.03 0.00 94 1013.1
20260905061506 18 43 0.0 0.0 0.00 0.03 0.00 93 1013.1
20260905060005 18 43 0.0 0.0 0.00 0.03 0.00 93 1013.2
20260905054505 18 43 0.0 0.0 0.00 0.03 0.00 93 1013.2
20260905053005 18 43 0.0 0.0 0.00 0.03 0.00 92 1013.2
20260905051515 18 43 0.0 0.0 0.00 0.03 0.00 92 1013.3
20260905050006 18 43 0.0 0.0 0.00 0.03 0.00 91 1013.5
20260905044508 18 43 0.0 0.0 0.00 0.03 0.00 91 1013.3
20260905043005 18 43 0.0 0.0 0.00 0.03 0.00 91 1013.4
20260905041506 18 43 0.0 0.0 0.00 0.03 0.00 92 1013.4
20260905040007 18 43 0.0 0.0 0.00 0.03 0.00 93 1013.4
20260905034510 19 43 0.0 0.0 0.00 0.03 0.03 94 1013.4
20260905033007 19 43 0.0 0.0 0.00 0.03 0.03 94 1013.5
20260905031507 20 43 0.0 0.0 0.00 0.03 0.03 94 1013.5
20260905030007 20 43 0.0 0.0 0.00 0.03 0.03 94 1013.6
20260905024508 19 43 0.0 0.0 0.00 0.03 0.03 94 1013.9
20260905023006 18 43 0.0 0.0 0.00 0.03 0.03 94 1014.0
20260905021505 18 43 0.0 0.0 0.00 0.03 0.03 93 1014.0
20260905020009 18 43 0.0 0.0 0.00 0.03 0.03 93 1013.8
20260905014507 18 43 0.0 0.0 0.00 0.03 0.03 92 1013.7